TimeEST,TemperatureF,Dew PointF,Humidity,Sea Level PressureIn,VisibilityMPH,Wind Direction,Wind SpeedMPH,Gust SpeedMPH,PrecipitationIn,Events,Conditions,WindDirDegrees,DateUTC
12:15 AM,25.7,21.0,82,29.80,10.0,SSW,4.6,-,N/A,,Overcast,210,2013-02-13 05:15:00
12:35 AM,26.1,21.0,81,29.80,10.0,SSW,6.9,-,N/A,,Overcast,200,2013-02-13 05:35:00
12:55 AM,26.1,21.0,81,29.79,10.0,SSW,4.6,-,N/A,,Overcast,200,2013-02-13 05:55:00
1:15 AM,25.7,20.8,82,29.79,10.0,South,4.6,-,N/A,,Overcast,190,2013-02-13 06:15:00
1:35 AM,25.7,20.8,82,29.78,10.0,South,6.9,-,N/A,,Overcast,190,2013-02-13 06:35:00
1:55 AM,25.7,21.0,82,29.77,10.0,South,5.8,-,N/A,,Overcast,190,2013-02-13 06:55:00
2:15 AM,25.7,21.2,83,29.77,10.0,South,6.9,-,N/A,,Overcast,190,2013-02-13 07:15:00
2:35 AM,25.7,21.2,83,29.76,10.0,SSW,5.8,-,N/A,,Overcast,200,2013-02-13 07:35:00
2:55 AM,25.7,21.6,84,29.76,10.0,SSW,6.9,-,N/A,,Overcast,200,2013-02-13 07:55:00
3:15 AM,26.1,21.7,84,29.75,10.0,South,5.8,-,N/A,,Overcast,190,2013-02-13 08:15:00
3:35 AM,26.1,21.9,84,29.75,10.0,SSW,6.9,-,N/A,,Overcast,200,2013-02-13 08:35:00
3:55 AM,26.4,22.3,84,29.74,10.0,SSW,8.1,-,N/A,,Overcast,200,2013-02-13 08:55:00
4:15 AM,26.6,22.6,85,29.74,10.0,SSW,6.9,-,N/A,,Overcast,200,2013-02-13 09:15:00
4:35 AM,27.0,22.8,84,29.73,10.0,SSW,9.2,-,N/A,,Overcast,200,2013-02-13 09:35:00
4:55 AM,27.3,23.0,84,29.73,10.0,SSW,6.9,-,N/A,,Overcast,200,2013-02-13 09:55:00
5:14 AM,27.5,23.0,83,29.73,10.0,South,5.8,-,N/A,,Overcast,190,2013-02-13 10:14:00
5:35 AM,27.5,23.4,84,29.72,10.0,South,4.6,-,N/A,,Overcast,190,2013-02-13 10:35:00
5:55 AM,27.9,23.5,84,29.71,10.0,South,6.9,-,N/A,,Overcast,190,2013-02-13 10:55:00
6:15 AM,28.0,23.7,84,29.70,10.0,South,4.6,-,N/A,,Overcast,180,2013-02-13 11:15:00
6:35 AM,28.4,23.9,83,29.70,10.0,SSW,4.6,-,N/A,,Overcast,200,2013-02-13 11:35:00
6:55 AM,28.4,23.9,83,29.69,10.0,South,4.6,-,N/A,,Overcast,190,2013-02-13 11:55:00
7:15 AM,28.4,23.9,83,29.69,10.0,South,4.6,-,N/A,,Overcast,170,2013-02-13 12:15:00
7:35 AM,28.8,24.3,83,29.69,10.0,South,3.5,-,N/A,,Overcast,190,2013-02-13 12:35:00
7:55 AM,28.6,24.3,84,29.68,10.0,South,3.5,-,N/A,,Overcast,190,2013-02-13 12:55:00
8:15 AM,29.1,24.6,83,29.68,7.0,South,4.6,-,N/A,,Overcast,190,2013-02-13 13:15:00
8:35 AM,29.3,25.2,85,29.68,7.0,SSW,6.9,-,N/A,,Overcast,200,2013-02-13 13:35:00
8:55 AM,29.3,25.2,85,29.68,7.0,SSW,5.8,-,N/A,,Overcast,200,2013-02-13 13:55:00
9:15 AM,29.8,25.3,83,29.67,7.0,SSW,9.2,-,N/A,,Overcast,210,2013-02-13 14:15:00
9:35 AM,30.7,26.1,83,29.67,7.0,SW,10.4,-,N/A,,Overcast,220,2013-02-13 14:35:00
9:55 AM,31.1,26.2,82,29.67,7.0,WSW,8.1,-,N/A,,Overcast,240,2013-02-13 14:55:00
10:14 AM,31.8,26.6,81,29.66,7.0,SW,9.2,-,N/A,,Overcast,220,2013-02-13 15:14:00
10:35 AM,32.0,27.0,82,29.65,7.0,SW,10.4,-,N/A,,Overcast,220,2013-02-13 15:35:00
10:55 AM,32.5,27.1,80,29.65,7.0,WSW,10.4,17.3,N/A,,Mostly Cloudy,240,2013-02-13 15:55:00
11:15 AM,33.8,27.5,78,29.65,7.0,WSW,15.0,21.9,N/A,,Scattered Clouds,240,2013-02-13 16:15:00
11:35 AM,34.3,27.9,77,29.65,7.0,SW,13.8,21.9,N/A,,Scattered Clouds,230,2013-02-13 16:35:00
11:55 AM,35.6,28.0,74,29.65,10.0,SW,15.0,20.7,N/A,,Scattered Clouds,230,2013-02-13 16:55:00
12:15 PM,35.1,27.7,74,29.65,10.0,WSW,12.7,21.9,N/A,,Scattered Clouds,250,2013-02-13 17:15:00
12:35 PM,36.1,28.0,72,29.64,10.0,WSW,11.5,19.6,N/A,,Clear,250,2013-02-13 17:35:00
12:55 PM,36.0,28.0,73,29.63,10.0,WSW,17.3,23.0,N/A,,Clear,240,2013-02-13 17:55:00
1:15 PM,36.0,28.2,73,29.63,10.0,WSW,15.0,23.0,N/A,,Mostly Cloudy,240,2013-02-13 18:15:00
1:35 PM,36.5,28.0,71,29.63,10.0,WSW,15.0,21.9,N/A,,Scattered Clouds,240,2013-02-13 18:35:00
1:55 PM,37.4,28.4,70,29.63,10.0,WSW,10.4,18.4,N/A,,Scattered Clouds,240,2013-02-13 18:55:00
2:15 PM,37.0,28.2,70,29.63,10.0,SW,12.7,17.3,N/A,,Overcast,230,2013-02-13 19:15:00
2:35 PM,36.1,28.2,73,29.63,10.0,SW,12.7,16.1,N/A,,Overcast,220,2013-02-13 19:35:00
2:55 PM,36.7,28.4,72,29.63,7.0,WSW,10.4,-,N/A,,Scattered Clouds,240,2013-02-13 19:55:00
3:15 PM,36.9,28.0,70,29.63,10.0,WSW,11.5,17.3,N/A,,Clear,250,2013-02-13 20:15:00
3:35 PM,36.3,28.4,73,29.63,7.0,SW,8.1,-,N/A,,Clear,230,2013-02-13 20:35:00
3:55 PM,36.7,28.4,72,29.64,10.0,West,8.1,-,N/A,,Clear,270,2013-02-13 20:55:00
4:15 PM,36.5,28.0,71,29.65,10.0,WSW,8.1,-,N/A,,Clear,240,2013-02-13 21:15:00
4:35 PM,35.8,28.0,73,29.65,10.0,WSW,9.2,-,N/A,,Scattered Clouds,240,2013-02-13 21:35:00
4:55 PM,35.4,28.4,76,29.65,10.0,WSW,4.6,-,N/A,,Mostly Cloudy,240,2013-02-13 21:55:00
5:14 PM,34.7,28.2,77,29.65,10.0,WSW,6.9,-,N/A,,Scattered Clouds,240,2013-02-13 22:14:00
5:35 PM,33.6,28.4,81,29.65,7.0,WSW,3.5,-,N/A,,Clear,240,2013-02-13 22:35:00
5:55 PM,32.4,28.0,84,29.66,7.0,Calm,Calm,-,N/A,,Clear,0,2013-02-13 22:55:00
6:14 PM,31.3,27.3,85,29.66,7.0,Calm,Calm,-,N/A,,Clear,0,2013-02-13 23:14:00
6:35 PM,28.9,27.0,92,29.66,7.0,Calm,Calm,-,N/A,,Clear,0,2013-02-13 23:35:00
6:55 PM,27.1,26.1,96,29.66,5.0,Calm,Calm,-,N/A,,Clear,0,2013-02-13 23:55:00
7:15 PM,26.6,25.7,96,29.66,3.0,Calm,Calm,-,N/A,,Clear,0,2013-02-14 00:15:00
7:35 PM,27.3,26.6,97,29.67,4.0,Calm,Calm,-,N/A,,Scattered Clouds,0,2013-02-14 00:35:00
7:55 PM,27.0,26.4,98,29.67,4.0,Calm,Calm,-,N/A,,Mostly Cloudy,0,2013-02-14 00:55:00
8:15 PM,25.0,24.4,98,29.67,3.0,Calm,Calm,-,N/A,,Overcast,0,2013-02-14 01:15:00
8:35 PM,25.7,25.3,99,29.67,3.0,Calm,Calm,-,N/A,,Overcast,0,2013-02-14 01:35:00
8:55 PM,26.4,26.2,99,29.67,3.0,Calm,Calm,-,N/A,,Overcast,0,2013-02-14 01:55:00
9:15 PM,26.1,25.9,99,29.67,2.5,Calm,Calm,-,N/A,,Overcast,0,2013-02-14 02:15:00
9:35 PM,26.2,26.1,99,29.66,2.5,Calm,Calm,-,N/A,,Mostly Cloudy,0,2013-02-14 02:35:00
9:55 PM,24.1,23.9,99,29.66,1.2,Calm,Calm,-,N/A,,Scattered Clouds,0,2013-02-14 02:55:00
10:15 PM,25.5,25.3,99,29.66,1.0,Calm,Calm,-,N/A,,Overcast,0,2013-02-14 03:15:00
10:35 PM,25.2,25.0,99,29.67,0.8,Calm,Calm,-,N/A,,Overcast,0,2013-02-14 03:35:00
10:54 PM,25.2,24.8,99,29.66,0.8,Calm,Calm,-,N/A,,Overcast,0,2013-02-14 03:54:00
11:15 PM,26.1,25.9,99,29.66,1.0,Calm,Calm,-,N/A,,Overcast,0,2013-02-14 04:15:00
11:35 PM,25.3,25.2,99,29.66,3.0,Calm,Calm,-,N/A,,Overcast,0,2013-02-14 04:35:00
11:55 PM,25.5,25.3,99,29.66,2.0,Calm,Calm,-,N/A,,Overcast,0,2013-02-14 04:55:00